Regional Weather Roundup
Issued by NWS

Home | Current Version | Previous Version | Graphics & Text | Print | Product List | Glossary On
Versions: 1 2 3 4 5 6 7 8 9 10 11 12 13 14 15 16 17 18 19 20 21 22 23 24 25 26 27 28 29 30 31 32 33 34 35 36 37 38 39 40 41 42 43 44 45 46 47 48 49 50
000
ASUS45 KSLC 012010
RWRUT

UTAH REGIONAL WEATHER ROUNDUP
NATIONAL WEATHER SERVICE SALT LAKE CITY UT
200 PM MDT WED JUL 01 2015

UTZ001>011-023>025-012100-

NORTHERN UTAH

CITY           SKY/WX    TMP DP  RH WIND       PRES   REMARKS
BRIGHAM CITY   SUNNY     93  42  16 NW3       30.07F
HILL AFB       MOSUNNY   91  47  22 NW10      30.12F
LOGAN          SUNNY     92  46  20 NW5       30.08F
OGDEN          MOSUNNY   92  46  20 VRB6      30.09F
PROVO AIRPORT  SUNNY     91  55  29 W8        30.09F
SALT LAKE CITY MOSUNNY   93  54  26 NW13      30.06F HX  91
VERNAL         MOSUNNY   84  50  30 N10       30.15F
WENDOVER       SUNNY     97  48  19 SE10      30.08S HX  93
HEBER CITY     SUNNY     93  37  14 NE9       30.15F
WEST JORDAN    SUNNY     93  52  24 NW9G24    30.11F HX  90

$$

UTZ012>022-026-027-012100-

SOUTHERN/CENTRAL UTAH

CITY           SKY/WX    TMP DP  RH WIND       PRES   REMARKS
BLANDING       MOSUNNY   91  46  20 CALM      30.21F
BRYCE CANYON   MOSUNNY   88  47  24 VRB7      30.30F
CEDAR CITY     MOSUNNY   92  43  18 VRB3      30.13F
DELTA          SUNNY     94  43  17 N10       30.08F HX  90
HANKSVILLE     PTSUNNY   97  41  14 NE6       30.03F HX  92
MILFORD        SUNNY     99  46  16 N17G23    30.08F HX  95
MOAB/CYNLANDS  SUNNY     97  45  16 E9        30.00F HX  93
PRICE          PTSUNNY   96  42  15 SW10G20   30.13F HX  92
ST GEORGE      CLEAR    100  54  20 W13       29.92F HX  98
KANAB          SUNNY     97  48  19 SW6       30.10F HX  93

$$

REGIONAL REPORTS     COLORADO/ARIZONA

CITY           SKY/WX    TMP DP  RH WIND       PRES   REMARKS
CRAIG, CO      CLOUDY    77  53  43 S8        30.23F
GRAND JUNCTION PTSUNNY   91  47  21 S8        30.06F
RIFLE          PTSUNNY   86  47  25 NW5       30.14F
MONTROSE       MOSUNNY   91  46  21 NW9       30.15F
CORTEZ         SUNNY     94  45  18 S8        30.13F HX  90
PAGE, AZ       SUNNY    101  43  13 VRB6      29.98F HX  96
GRAND CANYON   SUNNY     88  44  21 N6        30.23F
KINGMAN        MOSUNNY   94  54  25 SW24G31   30.05S HX  92
FLAGSTAFF      MOSUNNY   80  56  43 SW14G21   30.27F

$$

REGIONAL REPORTS    NEVADA/IDAHO/WYOMING

CITY           SKY/WX    TMP DP  RH WIND       PRES   REMARKS
LAS VEGAS, NV  MOSUNNY  104  53  18 NW5       29.84F HX 102
ELY            SUNNY     92  43  18 NE10      30.21F
ELKO           MOSUNNY   93  46  19 VRB5      30.13F
POCATELLO, ID  SUNNY     91  52  26 NW5       30.10F
BURLEY         SUNNY     90  55  30 VRB6      30.07F
EVANSTON, WY   MOSUNNY   86  35  16 VRB6G18   30.29F
ROCK SPRINGS   PTSUNNY   82  49  31 NW12      30.23
KEMMERER       SUNNY     84  37  18 W14G20    30.30S

$$


USA.gov is the U.S. government's official web portal to all federal, state and local government web resources and services.